TimeCST,TemperatureF,Dew PointF,Humidity,Sea Level PressureIn,VisibilityMPH,Wind Direction,Wind SpeedMPH,Gust SpeedMPH,PrecipitationIn,Events,Conditions,WindDirDegrees,DateUTC
12:15 AM,-11.2,-9999,N/A,30.47,10.0,WNW,23.0,31.1,N/A,,Clear,300,2014-01-06 06:15:00
12:35 AM,-11.2,-9999,N/A,30.46,10.0,WNW,24.2,28.8,N/A,,Clear,290,2014-01-06 06:35:00
12:55 AM,-11.2,-9999,N/A,30.45,10.0,WNW,20.7,31.1,N/A,,Clear,290,2014-01-06 06:55:00
1:15 AM,-11.2,-9999,N/A,30.45,10.0,WNW,24.2,29.9,N/A,,Clear,290,2014-01-06 07:15:00
1:35 AM,-11.2,-31.0,37,30.44,10.0,WNW,25.3,29.9,N/A,,Clear,300,2014-01-06 07:35:00
1:55 AM,-11.2,-29.2,41,30.44,10.0,WNW,20.7,24.2,N/A,,Clear,290,2014-01-06 07:55:00
2:15 AM,-11.2,-27.4,45,30.44,10.0,WNW,21.9,31.1,N/A,,Clear,290,2014-01-06 08:15:00
2:35 AM,-11.2,-25.6,49,30.44,10.0,WNW,18.4,26.5,N/A,,Clear,300,2014-01-06 08:35:00
2:55 AM,-11.2,-25.6,49,30.44,10.0,WNW,15.0,23.0,N/A,,Clear,300,2014-01-06 08:55:00
3:15 AM,-11.2,-25.6,49,30.44,10.0,WNW,17.3,21.9,N/A,,Clear,300,2014-01-06 09:15:00
3:35 AM,-11.2,-25.6,49,30.44,10.0,WNW,16.1,20.7,N/A,,Clear,290,2014-01-06 09:35:00
3:55 AM,-11.2,-23.8,54,30.43,10.0,WNW,16.1,21.9,N/A,,Clear,300,2014-01-06 09:55:00
4:15 AM,-11.2,-23.8,54,30.43,10.0,WNW,18.4,24.2,N/A,,Clear,300,2014-01-06 10:15:00
4:35 AM,-11.2,-23.8,54,30.44,10.0,WNW,17.3,-,N/A,,Clear,300,2014-01-06 10:35:00
4:55 AM,-11.2,-23.8,54,30.43,10.0,WNW,13.8,17.3,N/A,,Clear,300,2014-01-06 10:55:00
5:15 AM,-11.2,-22.0,59,30.43,10.0,WNW,11.5,-,N/A,,Clear,290,2014-01-06 11:15:00
5:35 AM,-11.2,-22.0,59,30.43,10.0,WNW,11.5,-,N/A,,Clear,290,2014-01-06 11:35:00
5:55 AM,-11.2,-22.0,59,30.42,10.0,WNW,12.7,-,N/A,,Clear,300,2014-01-06 11:55:00
6:15 AM,-11.2,-23.8,54,30.42,10.0,WNW,16.1,20.7,N/A,,Clear,300,2014-01-06 12:15:00
6:35 AM,-11.2,-25.6,49,30.42,10.0,WNW,13.8,-,N/A,,Clear,300,2014-01-06 12:35:00
6:55 AM,-11.2,-22.0,59,30.42,10.0,WNW,19.6,23.0,N/A,,Clear,300,2014-01-06 12:55:00
7:15 AM,-11.2,-23.8,54,30.42,10.0,NW,18.4,26.5,N/A,,Clear,310,2014-01-06 13:15:00
7:35 AM,-11.2,-25.6,49,30.42,10.0,NW,20.7,24.2,N/A,,Clear,310,2014-01-06 13:35:00
7:55 AM,-11.2,-25.6,49,30.42,10.0,NW,13.8,-,N/A,,Clear,310,2014-01-06 13:55:00
8:15 AM,-11.2,-23.8,54,30.42,10.0,WNW,17.3,24.2,N/A,,Clear,300,2014-01-06 14:15:00
8:35 AM,-9.4,-23.8,49,30.43,10.0,WNW,16.1,21.9,N/A,,Clear,300,2014-01-06 14:35:00
8:55 AM,-9.4,-20.2,59,30.43,10.0,WNW,16.1,24.2,N/A,,Clear,300,2014-01-06 14:55:00
9:15 AM,-9.4,-20.2,59,30.43,10.0,WNW,15.0,23.0,N/A,,Clear,300,2014-01-06 15:15:00
9:35 AM,-7.6,-23.8,45,30.43,10.0,WNW,17.3,24.2,N/A,,Clear,300,2014-01-06 15:35:00
9:55 AM,-7.6,-25.6,41,30.44,10.0,WNW,21.9,27.6,N/A,,Clear,300,2014-01-06 15:55:00
10:15 AM,-7.6,-16.6,65,30.44,10.0,WNW,24.2,28.8,N/A,,Clear,290,2014-01-06 16:15:00
10:35 AM,-5.8,-22.0,46,30.45,10.0,West,17.3,25.3,N/A,,Clear,280,2014-01-06 16:35:00
10:55 AM,-5.8,-9999,N/A,30.44,10.0,WNW,17.3,-,N/A,,Clear,300,2014-01-06 16:55:00
11:15 AM,-5.8,-9999,N/A,30.43,10.0,WNW,17.3,27.6,N/A,,Clear,290,2014-01-06 17:15:00
11:35 AM,-5.8,-9999,N/A,30.42,10.0,WNW,21.9,28.8,N/A,,Clear,300,2014-01-06 17:35:00
11:55 AM,-4.0,-9999,N/A,30.41,10.0,West,23.0,27.6,N/A,,Clear,280,2014-01-06 17:55:00
12:15 PM,-4.0,-31.0,26,30.40,10.0,WNW,21.9,29.9,N/A,,Clear,300,2014-01-06 18:15:00
12:35 PM,-2.2,-29.2,27,30.39,10.0,WNW,19.6,27.6,N/A,,Clear,290,2014-01-06 18:35:00
12:55 PM,-2.2,-27.4,29,30.37,10.0,West,23.0,27.6,N/A,,Clear,280,2014-01-06 18:55:00
1:15 PM,-2.2,-25.6,32,30.36,10.0,WNW,21.9,28.8,N/A,,Clear,300,2014-01-06 19:15:00
1:35 PM,-0.4,-23.8,32,30.35,10.0,West,23.0,27.6,N/A,,Clear,280,2014-01-06 19:35:00
1:55 PM,-0.4,-22.0,36,30.35,10.0,WNW,20.7,27.6,N/A,,Clear,290,2014-01-06 19:55:00
2:15 PM,-0.4,-20.2,39,30.35,10.0,WNW,24.2,28.8,N/A,,Clear,290,2014-01-06 20:15:00
2:35 PM,-0.4,-18.4,43,30.35,10.0,West,23.0,27.6,N/A,,Partly Cloudy,280,2014-01-06 20:35:00
2:55 PM,-0.4,-18.4,43,30.35,10.0,WNW,18.4,28.8,N/A,,Partly Cloudy,290,2014-01-06 20:55:00
3:15 PM,-0.4,-16.6,46,30.35,10.0,West,19.6,-,N/A,,Partly Cloudy,280,2014-01-06 21:15:00
3:35 PM,1.4,-18.4,39,30.35,10.0,WNW,18.4,25.3,N/A,,Partly Cloudy,290,2014-01-06 21:35:00
3:55 PM,1.4,-16.6,43,30.34,10.0,WNW,19.6,25.3,N/A,,Clear,300,2014-01-06 21:55:00
4:15 PM,1.4,-16.6,43,30.34,10.0,West,15.0,-,N/A,,Clear,280,2014-01-06 22:15:00
4:35 PM,1.4,-14.8,47,30.33,10.0,West,19.6,-,N/A,,Clear,280,2014-01-06 22:35:00
4:55 PM,1.4,-14.8,47,30.33,10.0,WNW,16.1,-,N/A,,Clear,290,2014-01-06 22:55:00
5:15 PM,-0.4,-14.8,51,30.32,10.0,WNW,16.1,-,N/A,,Clear,290,2014-01-06 23:15:00
5:35 PM,-0.4,-13.0,55,30.31,10.0,WNW,10.4,-,N/A,,Clear,290,2014-01-06 23:35:00
5:55 PM,-0.4,-9999,N/A,30.30,10.0,WNW,9.2,-,N/A,,Clear,290,2014-01-06 23:55:00
6:15 PM,-2.2,-52.6,7,30.30,10.0,West,8.1,-,N/A,,Clear,280,2014-01-07 00:15:00
6:35 PM,-2.2,-29.2,27,30.30,10.0,West,6.9,-,N/A,,Clear,280,2014-01-07 00:35:00
6:55 PM,-2.2,-27.4,29,30.30,10.0,West,8.1,-,N/A,,Clear,280,2014-01-07 00:55:00
7:15 PM,-2.2,-31.0,24,30.30,10.0,West,6.9,-,N/A,,Clear,280,2014-01-07 01:15:00
7:35 PM,-2.2,-29.2,27,30.29,10.0,West,5.8,-,N/A,,Clear,260,2014-01-07 01:35:00
7:55 PM,-2.2,-25.6,32,30.28,10.0,WSW,3.5,-,N/A,,Clear,250,2014-01-07 01:55:00
8:15 PM,-2.2,-23.8,35,30.28,10.0,West,4.6,-,N/A,,Clear,260,2014-01-07 02:15:00
8:35 PM,-2.2,-22.0,39,30.27,10.0,West,5.8,-,N/A,,Clear,270,2014-01-07 02:35:00
8:55 PM,-2.2,-20.2,42,30.26,10.0,West,4.6,-,N/A,,Clear,270,2014-01-07 02:55:00
9:15 PM,-2.2,-18.4,46,30.26,10.0,West,5.8,-,N/A,,Clear,260,2014-01-07 03:15:00
9:35 PM,-0.4,-14.8,51,30.26,10.0,SSW,4.6,-,N/A,,Clear,200,2014-01-07 03:35:00
9:55 PM,-2.2,-14.8,55,30.24,10.0,SSW,3.5,-,N/A,,Partly Cloudy,200,2014-01-07 03:55:00
10:15 PM,-0.4,-11.2,60,30.24,10.0,SW,3.5,-,N/A,,Scattered Clouds,220,2014-01-07 04:15:00
10:35 PM,-0.4,-2.2,92,30.23,10.0,SSW,3.5,-,N/A,,Clear,210,2014-01-07 04:35:00
10:55 PM,-0.4,-29.2,25,30.22,10.0,Calm,Calm,-,N/A,,Partly Cloudy,0,2014-01-07 04:55:00
11:15 PM,-0.4,-27.4,27,30.21,10.0,Calm,Calm,-,N/A,,Partly Cloudy,0,2014-01-07 05:15:00
11:35 PM,-0.4,-23.8,32,30.20,10.0,Calm,Calm,-,N/A,,Clear,0,2014-01-07 05:35:00
11:55 PM,-0.4,-20.2,39,30.19,10.0,Calm,Calm,-,N/A,,Clear,0,2014-01-07 05:55:00